This demonstration page uses our WeatherBlox Daily Observations layout. Learn more.

Left ArrowRight Arrow

36.19886, -115.1175

Hourly Observations for August 7, 2017

Temp ( °F °C ) Dew Point ( °F °C ) Humidity (%) Winds ( mph kmh ) Pressure ( in mb ) Visibility ( mi km ) Precip ( " mm )
12:53 am 00:53 Clear 90 32.2 50 10 25 25 NNW 3 6 29.82 1010 10 16 N/A
1:53 am 01:53 Clear 87 30.6 55 12.8 34 34 N 12 19 29.83 1010 10 16 N/A
2:53 am 02:53 Clear 84 28.9 56 13.3 38 38 N N/A 29.85 1011 10 16 N/A
3:53 am 03:53 Clear 84 28.9 55 12.8 37 37 ENE 8 13 29.86 1011 10 16 N/A
4:53 am 04:53 Clear 83 28.3 55 12.8 38 38 NNE 3 6 29.87 1012 10 16 N/A
5:53 am 05:53 Sunny 82 27.8 56 13.3 41 41 SW 6 9 29.88 1012 10 16 N/A
6:53 am 06:53 Sunny 82 27.8 56 13.3 41 41 S 6 9 29.89 1012 10 16 N/A
7:53 am 07:53 Sunny 85 29.4 56 13.3 37 37 S 7 11 29.90 1013 10 16 N/A
8:53 am 08:53 Sunny 86 30 54 12.2 33 33 VRB 3 6 29.91 1013 10 16 N/A
9:53 am 09:53 Sunny 89 31.7 54 12.2 30 30 VRB 5 7 29.91 1013 10 16 N/A
10:53 am 10:53 Sunny 91 32.8 53 11.7 27 27 E 8 13 29.91 1013 10 16 N/A
11:53 am 11:53 Sunny 93 33.9 52 11.1 25 25 N N/A 29.89 1012 10 16 N/A
12:53 pm 12:53 Sunny 97 36.1 51 10.6 21 21 SSW 10 17 29.87 1012 10 16 N/A
1:53 pm 13:53 Sunny 99 37.2 50 10 19 19 SSE 8 13 29.84 1011 10 16 N/A
2:53 pm 14:53 Sunny 101 38.3 47 8.3 16 16 undefined N/A 29.81 1010 10 16 N/A
3:53 pm 15:53 Sunny 101 38.3 46 7.8 15 15 SSE 12 19 29.79 1009 10 16 N/A
4:34 pm 16:34 Partly Cloudy with Nearby Thunderstorms 100 37.8 47 8.3 16 16 SSE 9 15 29.62 1003 10 16 N/A
4:53 pm 16:53 Partly Cloudy with Nearby Thunderstorms 100 37.8 46 7.8 16 16 S 7 11 29.78 1008 10 16 N/A
5:03 pm 17:03 Mostly Sunny 101 38.3 46 7.8 15 15 SSW 7 11 29.62 1003 10 16 N/A
5:53 pm 17:53 Sunny 100 37.8 44 6.7 15 15 N N/A 29.77 1008 10 16 N/A
6:53 pm 18:53 Sunny 100 37.8 43 6.1 14 14 SSE 9 15 29.76 1008 10 16 N/A
7:53 pm 19:53 Clear 99 37.2 43 6.1 15 15 SW 3 6 29.76 1008 10 16 N/A
8:53 pm 20:53 Clear 97 36.1 41 5 14 14 W 8 13 29.78 1009 10 16 N/A
9:53 pm 21:53 Clear 95 35 38 3.3 14 14 WSW 7 11 29.80 1009 10 16 N/A
10:53 pm 22:53 Clear 93 33.9 39 3.9 15 15 NNW 5 7 29.81 1009 10 16 N/A
11:53 pm 23:53 Clear 92 33.3 40 4.4 16 16 SSW 3 6 29.82 1010 10 16 N/A

Powered by AerisWeather